Stations météo

réclame
Mon MeteoGroup
Guernsey, Grande-Bretagne (3894): Température de l'air & dewpoint: 17.11.2017 11:00:00 - 23.11.2017 11:00:00 (GMT)Guernsey, Grande-Bretagne (3894): Vitesse du vent & gusts: 17.11.2017 11:00:00 - 23.11.2017 11:00:00 (GMT)Guernsey, Grande-Bretagne (3894): Direction du vent: 17.11.2017 11:00:00 - 23.11.2017 11:00:00 (GMT)Guernsey, Grande-Bretagne (3894): reduced air pressure: 17.11.2017 11:00:00 - 23.11.2017 11:00:00 (GMT)Guernsey, Grande-Bretagne (3894): visibility: 17.11.2017 11:00:00 - 23.11.2017 11:00:00 (GMT)Guernsey, Grande-Bretagne (3894): Quantités de précipitations: 17.11.2017 11:00:00 - 23.11.2017 11:00:00 (GMT)
Date & Time tt [°C] td [°C] ff [km/h] ff [knt] fx [km/h] fx [knt] dd ppp [hPa] vv [km] rr [mm]
23.11.2017 11:00:00 11,0 2,0 35 19 - - WSW - 10 -
23.11.2017 10:00:00 10,8 4,7 29 16 50 27 W 1003,1 10 -
23.11.2017 09:00:00 10,5 3,9 39 21 57 31 W 1001,5 10 -
23.11.2017 08:00:00 10,6 6,0 35 19 55 30 W 999,8 10 -
23.11.2017 07:00:00 10,6 8,6 35 19 70 38 W 997,7 10 -
23.11.2017 06:00:00 13,3 12,1 39 21 70 38 SW 995,4 10 -
23.11.2017 05:00:00 13,0 11,5 48 26 67 36 WSW 994,1 10 -
23.11.2017 04:00:00 13,3 11,9 46 25 67 36 WSW 993,1 10 -
23.11.2017 03:00:00 12,9 11,6 52 28 81 44 WSW 991,5 15 -
23.11.2017 02:00:00 13,7 11,4 50 27 70 38 SW 990,0 18 -
23.11.2017 01:00:00 13,9 11,8 46 25 76 41 S 989,1 20 -
23.11.2017 00:00:00 14,4 11,0 48 26 74 40 S 989,5 20 -
22.11.2017 23:00:00 13,8 11,1 44 24 83 45 SSW 990,5 18 -
22.11.2017 22:00:00 15,5 9,6 54 29 89 48 SSW 991,3 20 -
22.11.2017 21:00:00 15,6 9,3 46 25 70 38 SSW 992,2 10 -
22.11.2017 20:00:00 15,0 11,0 44 24 - - SSW - 10 -
22.11.2017 19:00:00 15,0 10,4 42 23 63 34 S 994,2 10 -
22.11.2017 18:00:00 15,4 9,7 46 25 72 39 SSW 994,6 10 0,0
22.11.2017 17:00:00 14,4 10,3 41 22 68 37 S 995,2 10 -
22.11.2017 16:00:00 14,0 10,0 42 23 61 33 S 996,0 10 -
22.11.2017 15:00:00 14,1 10,3 41 22 61 33 S 997,2 10 -
22.11.2017 14:00:00 14,4 11,1 37 20 55 30 S 998,2 10 -
22.11.2017 13:00:00 14,4 11,4 39 21 52 28 S 999,5 10 -
22.11.2017 12:00:00 14,4 11,4 35 19 50 27 S 1000,2 10 0,0
22.11.2017 11:00:00 14,1 10,4 29 16 50 27 S 1002,0 10 -
22.11.2017 10:00:00 13,4 10,5 35 19 54 29 S 1002,8 10 -
22.11.2017 09:00:00 12,7 9,9 34 18 48 26 S 1003,3 10 -
22.11.2017 08:00:00 12,3 9,2 31 17 - - S 1003,8 10 -
22.11.2017 07:00:00 12,6 8,6 29 16 - - S 1004,4 10 -
22.11.2017 06:00:00 12,9 9,1 31 17 48 26 SSW 1005,1 10 0,0
22.11.2017 05:00:00 12,8 9,9 34 18 46 25 SSW 1005,6 10 -
22.11.2017 04:00:00 12,3 10,4 28 15 - - S 1006,4 10 -
22.11.2017 03:00:00 12,1 10,5 24 13 - - S 1007,3 20 -
22.11.2017 02:00:00 12,3 10,7 26 14 - - SSW 1008,1 20 -
22.11.2017 01:00:00 12,8 11,0 24 13 - - SSW 1008,8 20 -
22.11.2017 00:00:00 13,0 11,0 29 16 - - SSW 1009,6 25 0,0
21.11.2017 23:00:00 13,1 11,0 28 15 - - SSW 1010,0 30 -
21.11.2017 22:00:00 13,2 11,0 22 12 - - SSW 1010,3 30 -
21.11.2017 21:00:00 13,5 10,8 29 16 - - SW 1010,5 10 -
21.11.2017 20:00:00 13,6 11,0 26 14 - - SW 1010,9 10 -
21.11.2017 19:00:00 13,6 10,4 26 14 - - SW 1011,4 10 -
21.11.2017 18:00:00 13,7 10,3 29 16 - - SW 1012,0 10 0,0
21.11.2017 17:00:00 13,8 10,2 29 16 46 25 SW 1012,4 10 -
21.11.2017 16:00:00 13,6 10,8 24 13 - - SSW 1012,4 10 -
21.11.2017 15:00:00 13,7 10,3 31 17 46 25 SW 1012,7 10 -
21.11.2017 14:00:00 13,7 10,4 26 14 - - SW 1013,1 10 -
21.11.2017 13:00:00 13,3 10,9 26 14 - - SSW 1013,7 10 -
21.11.2017 12:00:00 13,3 10,6 24 13 - - SSW 1014,3 10 0,0
21.11.2017 11:00:00 13,2 10,2 28 15 - - SW 1015,1 10 -
21.11.2017 10:00:00 12,9 9,5 29 16 - - WSW 1015,4 10 -
21.11.2017 09:00:00 12,7 9,2 29 16 - - WSW 1015,4 10 -
21.11.2017 08:00:00 12,4 8,9 28 15 - - WSW 1015,1 10 -
21.11.2017 07:00:00 12,7 9,0 29 16 - - WSW 1014,9 10 -
21.11.2017 06:00:00 12,8 9,2 26 14 - - SW 1015,0 10 0,0
21.11.2017 05:00:00 12,8 9,5 22 12 - - SW 1015,6 10 -
21.11.2017 04:00:00 12,8 9,2 26 14 - - SW 1015,7 10 -
21.11.2017 03:00:00 12,8 9,6 24 13 - - SW 1016,1 30 -
21.11.2017 02:00:00 12,5 10,6 24 13 - - SW 1016,7 25 -
21.11.2017 01:00:00 12,3 10,6 26 14 - - SW 1017,0 30 -
21.11.2017 00:00:00 12,3 10,6 26 14 - - SW 1017,4 30 0,0
20.11.2017 23:00:00 12,2 10,8 28 15 - - SW 1017,7 30 -
20.11.2017 22:00:00 12,2 10,8 31 17 - - SW 1017,7 30 -
20.11.2017 21:00:00 12,3 10,5 29 16 - - SW 1018,3 10 -
20.11.2017 20:00:00 12,6 9,8 29 16 - - SW 1018,5 10 -
20.11.2017 19:00:00 12,6 9,8 31 17 46 25 WSW 1018,5 10 -
20.11.2017 18:00:00 12,7 9,8 29 16 - - WSW 1018,3 10 0,0
20.11.2017 17:00:00 12,7 9,8 31 17 52 28 WSW 1018,5 10 -
20.11.2017 16:00:00 12,6 9,8 37 20 54 29 WSW 1018,5 10 -
20.11.2017 15:00:00 12,8 9,9 39 21 57 31 WSW 1018,5 10 -
20.11.2017 14:00:00 12,9 10,6 37 20 - - WSW 1018,9 10 -
20.11.2017 13:00:00 12,7 10,1 35 19 52 28 WSW 1019,6 10 -
20.11.2017 12:00:00 12,6 10,2 34 18 48 26 WSW 1020,1 10 0,0
20.11.2017 11:00:00 12,5 10,0 31 17 - - SW 1020,8 10 -
20.11.2017 10:00:00 12,1 9,7 28 15 46 25 SW 1021,0 10 -
20.11.2017 09:00:00 11,9 9,7 31 17 48 26 WSW 1021,3 10 -
20.11.2017 08:00:00 11,8 8,1 31 17 - - WSW 1021,0 10 -
20.11.2017 07:00:00 11,6 7,4 29 16 - - WSW 1021,2 10 -
20.11.2017 06:00:00 11,4 7,4 28 15 - - WSW 1021,4 10 -
20.11.2017 05:00:00 11,1 7,4 28 15 - - WSW 1021,6 10 -
20.11.2017 04:00:00 11,4 8,1 24 13 - - WSW 1021,8 10 -
20.11.2017 03:00:00 11,6 8,3 22 12 - - WSW 1022,6 35 -
20.11.2017 02:00:00 11,5 8,6 22 12 - - WSW 1022,5 30 -
20.11.2017 01:00:00 10,8 9,3 16 9 - - WSW 1023,0 30 -
20.11.2017 00:00:00 11,5 10,2 16 9 - - WSW 1023,8 20 -
19.11.2017 23:00:00 11,1 10,6 9 5 - - SW 1024,1 20 -
19.11.2017 22:00:00 11,5 10,6 15 8 - - SSW 1024,6 8 -
19.11.2017 21:00:00 11,3 9,6 15 8 - - S 1024,7 10 -
19.11.2017 20:00:00 11,0 8,6 13 7 - - S 1024,7 10 -
19.11.2017 19:00:00 10,7 8,3 9 5 - - S 1024,8 10 -
19.11.2017 18:00:00 10,6 8,3 4 2 - - SSE 1025,0 10 -
19.11.2017 17:00:00 10,4 8,1 4 2 - - SSE 1024,9 10 -
19.11.2017 16:00:00 10,8 8,1 2 1 - - S 1024,9 10 -
19.11.2017 15:00:00 11,0 7,9 4 2 - - ESE 1024,6 10 -
19.11.2017 14:00:00 11,3 7,7 2 1 - - - 1024,8 10 -
19.11.2017 13:00:00 11,5 7,7 2 1 - - - 1025,1 10 -
19.11.2017 12:00:00 11,1 7,4 2 1 - - ENE 1025,3 10 -
19.11.2017 11:00:00 10,9 7,8 5 3 - - - 1025,3 10 -
19.11.2017 10:00:00 10,4 8,2 5 3 - - NNE 1025,1 10 -
19.11.2017 09:00:00 9,9 8,4 5 3 - - NE 1024,7 10 -
19.11.2017 08:00:00 9,5 8,6 8 4 - - NNE 1024,2 10 -
19.11.2017 07:00:00 9,8 9,6 9 5 - - NNE 1023,7 9 -
19.11.2017 06:00:00 10,6 10,3 9 5 - - NNE 1023,2 3,5 -
19.11.2017 05:00:00 11,6 10,8 11 6 - - N 1022,7 7 -
19.11.2017 04:00:00 12,5 11,0 24 13 - - WNW 1022,5 10 -
19.11.2017 03:00:00 12,4 10,8 22 12 - - WNW 1022,8 22 -
19.11.2017 02:00:00 12,2 11,0 21 11 - - WNW 1022,8 30 -
19.11.2017 01:00:00 12,0 10,7 24 13 - - WNW 1023,1 40 -
19.11.2017 00:00:00 12,2 10,4 24 13 - - W 1023,3 45 -
18.11.2017 23:00:00 12,0 10,0 22 12 - - W 1023,6 50 -
18.11.2017 22:00:00 11,9 9,4 24 13 - - W 1023,9 50 -
18.11.2017 21:00:00 11,6 8,9 24 13 - - W 1024,2 10 -
18.11.2017 20:00:00 11,3 8,6 22 12 - - W 1024,1 10 -
18.11.2017 19:00:00 11,3 8,5 24 13 - - W 1024,3 10 -
18.11.2017 18:00:00 10,9 7,5 22 12 - - W 1024,6 10 0,0
18.11.2017 17:00:00 10,8 6,6 22 12 - - W 1025,0 10 -
18.11.2017 16:00:00 10,8 7,3 24 13 - - W 1024,9 10 -
18.11.2017 15:00:00 10,9 6,8 22 12 - - W 1025,1 10 -
18.11.2017 14:00:00 11,2 7,7 21 11 - - W 1025,5 10 -
18.11.2017 13:00:00 11,3 7,3 21 11 - - WSW 1026,0 10 -
18.11.2017 12:00:00 11,4 5,5 16 9 - - WSW 1026,7 10 0,0
18.11.2017 11:00:00 10,4 5,0 11 6 - - WSW 1027,3 10 -
18.11.2017 10:00:00 10,1 6,1 5 3 - - WSW 1027,1 10 -
18.11.2017 09:00:00 8,8 4,1 0 0 - - N 1027,5 10 -
18.11.2017 08:00:00 7,1 3,3 4 2 - - W 1027,2 10 -
18.11.2017 07:00:00 6,5 2,8 4 2 - - W 1027,0 10 -
18.11.2017 06:00:00 6,5 2,6 5 3 - - N 1027,1 10 0,0
18.11.2017 05:00:00 6,5 2,6 0 0 - - N 1027,4 10 -
18.11.2017 04:00:00 6,0 1,9 0 0 - - N 1027,3 10 -
18.11.2017 03:00:00 6,7 2,0 4 2 - - NNW 1028,0 50 -
18.11.2017 02:00:00 6,5 3,6 5 3 - - NNW 1028,2 50 -
18.11.2017 01:00:00 6,9 4,1 4 2 - - N 1028,5 50 -
18.11.2017 00:00:00 6,3 4,1 0 0 - - N 1028,3 50 0,0
17.11.2017 23:00:00 6,0 4,1 4 2 - - NW 1028,6 50 -
17.11.2017 22:00:00 7,0 4,2 5 3 - - N 1028,7 50 -
17.11.2017 21:00:00 7,2 4,5 5 3 - - NE 1028,6 10 -
17.11.2017 20:00:00 7,9 4,8 5 3 - - NNE 1029,1 10 -
17.11.2017 19:00:00 7,7 5,1 5 3 - - NNE 1029,1 10 -
17.11.2017 18:00:00 8,2 5,3 8 4 - - NNE 1028,8 10 0,0
17.11.2017 17:00:00 8,1 5,5 5 3 - - N 1028,5 10 -
17.11.2017 16:00:00 9,6 6,0 8 4 - - NE 1028,0 10 -
17.11.2017 15:00:00 10,7 6,2 13 7 - - NNE 1028,1 10 -
17.11.2017 14:00:00 11,0 6,7 13 7 - - NNE 1028,7 10 -
17.11.2017 13:00:00 11,5 6,4 9 5 - - NNE 1028,9 10 -
17.11.2017 12:00:00 11,4 7,4 11 6 - - ENE 1029,0 10 0,0
17.11.2017 11:00:00 11,7 8,0 15 8 - - ENE 1029,0 10 -

tt = Température de l'air
td = dewpoint
ff = Vitesse du vent
fx = gusts
dd = Direction du vent
ppp = reduced air pressure
vv = visibility
rr = Quantités de précipitations

stations d'obs. à proximité